Time,TemperatureF,DewpointF,PressureIn,WindDirection,WindDirectionDegrees,WindSpeedMPH,WindSpeedGustMPH,Humidity,HourlyPrecipIn,Conditions,Clouds,dailyrainin,SolarRadiationWatts/m^2,SoftwareType,DateUTC
2013-04-12 00:22:00,58.0,42.0,-100.00,West,276,21.0,31.0,55,0.00,,,0.00,0.000000,,2013-04-12 07:22:00,
2013-04-12 00:32:00,58.0,42.0,-100.00,West,276,21.0,31.0,55,0.00,,,0.00,0.000000,,2013-04-12 07:32:00,
2013-04-12 00:42:00,58.0,42.0,-100.00,West,276,21.0,31.0,55,0.00,,,0.00,0.000000,,2013-04-12 07:42:00,
2013-04-12 00:52:00,58.0,42.0,-100.00,West,276,21.0,31.0,55,0.00,,,0.00,0.000000,,2013-04-12 07:52:00,
2013-04-12 01:22:00,59.0,42.0,29.81,West,273,18.0,32.0,54,0.00,,,0.00,0.000000,,2013-04-12 08:22:00,
2013-04-12 01:32:00,59.0,42.0,29.81,West,273,18.0,32.0,54,0.00,,,0.00,0.000000,,2013-04-12 08:32:00,
2013-04-12 01:42:00,59.0,42.0,29.81,West,273,18.0,32.0,54,0.00,,,0.00,0.000000,,2013-04-12 08:42:00,
2013-04-12 01:52:00,59.0,42.0,29.81,West,273,18.0,32.0,54,0.00,,,0.00,0.000000,,2013-04-12 08:52:00,
2013-04-12 02:22:00,59.0,42.0,-100.00,West,276,19.0,31.0,53,0.00,,,0.00,0.000000,,2013-04-12 09:22:00,
2013-04-12 02:32:00,59.0,42.0,-100.00,West,276,19.0,31.0,53,0.00,,,0.00,0.000000,,2013-04-12 09:32:00,
2013-04-12 02:43:00,59.0,42.0,-100.00,West,276,19.0,31.0,53,0.00,,,0.00,0.000000,,2013-04-12 09:43:00,
2013-04-12 02:52:00,59.0,42.0,-100.00,West,276,19.0,31.0,53,0.00,,,0.00,0.000000,,2013-04-12 09:52:00,
2013-04-12 03:22:00,57.0,40.0,-100.00,West,281,17.0,30.0,52,0.00,,,0.00,0.000000,,2013-04-12 10:22:00,
2013-04-12 03:33:00,57.0,40.0,-100.00,West,281,17.0,30.0,52,0.00,,,0.00,0.000000,,2013-04-12 10:33:00,
2013-04-12 03:42:00,57.0,40.0,-100.00,West,281,17.0,30.0,52,0.00,,,0.00,0.000000,,2013-04-12 10:42:00,
2013-04-12 03:52:00,57.0,40.0,-100.00,West,281,17.0,30.0,52,0.00,,,0.00,0.000000,,2013-04-12 10:52:00,
2013-04-12 04:22:00,59.0,40.0,-100.00,West,278,13.0,28.0,49,0.00,,,0.00,0.000000,,2013-04-12 11:22:00,
2013-04-12 04:32:00,59.0,40.0,-100.00,West,278,13.0,28.0,49,0.00,,,0.00,0.000000,,2013-04-12 11:32:00,
2013-04-12 04:42:00,59.0,40.0,-100.00,West,278,13.0,28.0,49,0.00,,,0.00,0.000000,,2013-04-12 11:42:00,
2013-04-12 04:52:00,59.0,40.0,-100.00,West,278,13.0,28.0,49,0.00,,,0.00,0.000000,,2013-04-12 11:52:00,
2013-04-12 05:22:00,52.0,37.0,-100.00,ENE,67,4.0,22.0,56,0.00,,,0.00,0.000000,,2013-04-12 12:22:00,
2013-04-12 05:32:00,52.0,37.0,-100.00,ENE,67,4.0,22.0,56,0.00,,,0.00,0.000000,,2013-04-12 12:32:00,
2013-04-12 05:42:00,52.0,37.0,-100.00,ENE,67,4.0,22.0,56,0.00,,,0.00,0.000000,,2013-04-12 12:42:00,
2013-04-12 05:52:00,52.0,37.0,-100.00,ENE,67,4.0,22.0,56,0.00,,,0.00,0.000000,,2013-04-12 12:52:00,
2013-04-12 06:22:00,52.0,37.0,-100.00,WNW,282,5.0,11.0,57,0.00,,,-99.99,0.000000,,2013-04-12 13:22:00,
2013-04-12 06:32:00,52.0,37.0,-100.00,WNW,282,5.0,11.0,57,0.00,,,-99.99,0.000000,,2013-04-12 13:32:00,
2013-04-12 06:42:00,52.0,37.0,-100.00,WNW,282,5.0,11.0,57,0.00,,,-99.99,0.000000,,2013-04-12 13:42:00,
2013-04-12 06:52:00,52.0,37.0,-100.00,WNW,282,5.0,11.0,57,0.00,,,-99.99,0.000000,,2013-04-12 13:52:00,
2013-04-12 07:22:00,50.0,36.0,-100.00,NW,324,7.0,31.0,58,0.00,,,0.00,11.000000,,2013-04-12 14:22:00,
2013-04-12 07:32:00,50.0,36.0,-100.00,NW,324,7.0,31.0,58,0.00,,,0.00,11.000000,,2013-04-12 14:32:00,
2013-04-12 07:42:00,50.0,36.0,-100.00,NW,324,7.0,31.0,58,0.00,,,0.00,11.000000,,2013-04-12 14:42:00,
2013-04-12 07:52:00,50.0,36.0,-100.00,NW,324,7.0,31.0,58,0.00,,,0.00,11.000000,,2013-04-12 14:52:00,
2013-04-12 09:22:00,69.0,42.0,-100.00,WNW,288,13.0,22.0,37,0.00,,,-99.99,402.000000,,2013-04-12 16:22:00,
2013-04-12 09:42:00,69.0,42.0,-100.00,WNW,288,13.0,22.0,37,0.00,,,-99.99,402.000000,,2013-04-12 16:42:00,
2013-04-12 09:52:00,69.0,42.0,-100.00,WNW,288,13.0,22.0,37,0.00,,,-99.99,402.000000,,2013-04-12 16:52:00,
2013-04-12 10:22:00,75.0,38.0,29.89,NW,308,9.0,21.0,26,0.00,,,0.00,639.000000,,2013-04-12 17:22:00,
2013-04-12 10:44:00,75.0,38.0,29.89,NW,308,9.0,21.0,26,0.00,,,0.00,639.000000,,2013-04-12 17:44:00,
2013-04-12 12:26:00,78.0,32.0,29.89,SE,132,9.0,60.0,19,0.00,,,0.00,982.000000,,2013-04-12 19:26:00,
2013-04-12 12:32:00,78.0,32.0,29.89,SE,132,9.0,60.0,19,0.00,,,0.00,982.000000,,2013-04-12 19:32:00,
2013-04-12 12:42:00,78.0,32.0,29.89,SE,132,9.0,60.0,19,0.00,,,0.00,982.000000,,2013-04-12 19:42:00,
2013-04-12 12:52:00,78.0,32.0,29.89,SE,132,9.0,60.0,19,0.00,,,0.00,982.000000,,2013-04-12 19:52:00,
2013-04-12 13:22:00,81.0,29.0,29.87,NE,38,5.0,16.0,15,0.00,,,0.00,1060.000000,,2013-04-12 20:22:00,
2013-04-12 13:32:00,81.0,29.0,29.87,NE,38,5.0,16.0,15,0.00,,,0.00,1060.000000,,2013-04-12 20:32:00,
2013-04-12 13:42:00,81.0,29.0,29.87,NE,38,5.0,16.0,15,0.00,,,0.00,1060.000000,,2013-04-12 20:42:00,
2013-04-12 13:52:00,81.0,29.0,29.87,NE,38,5.0,16.0,15,0.00,,,0.00,1060.000000,,2013-04-12 20:52:00,
2013-04-12 14:22:00,82.0,24.0,29.85,East,101,7.0,17.0,12,0.00,,,0.00,1067.000000,,2013-04-12 21:22:00,
2013-04-12 14:32:00,82.0,24.0,29.85,East,101,7.0,17.0,12,0.00,,,0.00,1067.000000,,2013-04-12 21:32:00,
2013-04-12 15:22:00,84.0,24.0,29.83,NNE,12,7.0,15.0,11,0.00,,,0.00,999.000000,,2013-04-12 22:22:00,
2013-04-12 15:32:00,84.0,24.0,29.83,NNE,12,7.0,15.0,11,0.00,,,0.00,999.000000,,2013-04-12 22:32:00,
2013-04-12 15:42:00,84.0,24.0,29.83,NNE,12,7.0,15.0,11,0.00,,,0.00,999.000000,,2013-04-12 22:42:00,
2013-04-12 15:52:00,84.0,24.0,29.83,NNE,12,7.0,15.0,11,0.00,,,0.00,999.000000,,2013-04-12 22:52:00,
2013-04-12 16:22:00,86.0,23.0,29.81,ENE,76,4.0,16.0,10,0.00,,,0.00,859.000000,,2013-04-12 23:22:00,
2013-04-12 16:32:00,86.0,23.0,29.81,ENE,76,4.0,16.0,10,0.00,,,0.00,859.000000,,2013-04-12 23:32:00,
2013-04-12 16:42:00,86.0,23.0,29.81,ENE,76,4.0,16.0,10,0.00,,,0.00,859.000000,,2013-04-12 23:42:00,
2013-04-12 16:52:00,86.0,23.0,29.81,ENE,76,4.0,16.0,10,0.00,,,0.00,859.000000,,2013-04-12 23:52:00,
2013-04-12 17:22:00,84.0,33.0,29.80,SW,217,15.0,15.0,16,0.00,,,0.00,573.000000,,2013-04-13 00:22:00,
2013-04-12 17:32:00,84.0,33.0,29.80,SW,217,15.0,15.0,16,0.00,,,0.00,573.000000,,2013-04-13 00:32:00,
2013-04-12 17:42:00,84.0,33.0,29.80,SW,217,15.0,15.0,16,0.00,,,0.00,573.000000,,2013-04-13 00:42:00,
2013-04-12 17:52:00,84.0,33.0,29.80,SW,217,15.0,15.0,16,0.00,,,0.00,573.000000,,2013-04-13 00:52:00,
2013-04-12 18:22:00,79.0,33.0,29.81,SW,225,17.0,25.0,19,0.00,,,0.00,420.000000,,2013-04-13 01:22:00,
2013-04-12 18:32:00,79.0,33.0,29.81,SW,225,17.0,25.0,19,0.00,,,0.00,420.000000,,2013-04-13 01:32:00,
2013-04-12 18:42:00,79.0,33.0,29.81,SW,225,17.0,25.0,19,0.00,,,0.00,420.000000,,2013-04-13 01:42:00,
2013-04-12 18:52:00,79.0,33.0,29.81,SW,225,17.0,25.0,19,0.00,,,0.00,420.000000,,2013-04-13 01:52:00,
2013-04-12 19:22:00,73.0,36.0,29.83,WSW,237,11.0,35.0,26,0.00,,,0.00,167.000000,,2013-04-13 02:22:00,
2013-04-12 19:32:00,73.0,36.0,29.83,WSW,237,11.0,35.0,26,0.00,,,0.00,167.000000,,2013-04-13 02:32:00,
2013-04-12 19:42:00,73.0,36.0,29.83,WSW,237,11.0,35.0,26,0.00,,,0.00,167.000000,,2013-04-13 02:42:00,
2013-04-12 19:52:00,73.0,36.0,29.83,WSW,237,11.0,35.0,26,0.00,,,0.00,167.000000,,2013-04-13 02:52:00,
2013-04-12 20:22:00,67.0,38.0,-100.00,WSW,250,7.0,21.0,35,0.00,,,0.00,12.000000,,2013-04-13 03:22:00,
2013-04-12 20:33:00,67.0,38.0,-100.00,WSW,250,7.0,21.0,35,0.00,,,0.00,12.000000,,2013-04-13 03:33:00,
2013-04-12 20:42:00,67.0,38.0,-100.00,WSW,250,7.0,21.0,35,0.00,,,0.00,12.000000,,2013-04-13 03:42:00,
2013-04-12 20:52:00,67.0,38.0,-100.00,WSW,250,7.0,21.0,35,0.00,,,0.00,12.000000,,2013-04-13 03:52:00,
2013-04-12 21:23:00,62.0,35.0,29.87,West,262,7.0,16.0,36,0.00,,,0.00,0.000000,,2013-04-13 04:23:00,
2013-04-12 21:33:00,62.0,35.0,29.87,West,262,7.0,16.0,36,0.00,,,0.00,0.000000,,2013-04-13 04:33:00,
2013-04-12 21:42:00,62.0,35.0,29.87,West,262,7.0,16.0,36,0.00,,,0.00,0.000000,,2013-04-13 04:42:00,
2013-04-12 21:53:00,62.0,35.0,29.87,West,262,7.0,16.0,36,0.00,,,0.00,0.000000,,2013-04-13 04:53:00,
2013-04-12 22:22:00,64.0,38.0,29.88,West,275,14.0,15.0,38,0.00,,,0.00,0.000000,,2013-04-13 05:22:00,
2013-04-12 22:32:00,64.0,38.0,29.88,West,275,14.0,15.0,38,0.00,,,0.00,0.000000,,2013-04-13 05:32:00,
2013-04-12 22:42:00,64.0,38.0,29.88,West,275,14.0,15.0,38,0.00,,,0.00,0.000000,,2013-04-13 05:42:00,
2013-04-12 22:52:00,64.0,38.0,29.88,West,275,14.0,15.0,38,0.00,,,0.00,0.000000,,2013-04-13 05:52:00,
2013-04-12 23:23:00,64.0,40.0,-100.00,West,273,18.0,22.0,42,0.00,,,0.00,0.000000,,2013-04-13 06:23:00,
2013-04-12 23:34:00,64.0,40.0,-100.00,West,273,18.0,22.0,42,0.00,,,0.00,0.000000,,2013-04-13 06:34:00,
2013-04-12 23:53:00,64.0,40.0,-100.00,West,273,18.0,22.0,42,0.00,,,0.00,0.000000,,2013-04-13 06:53:00,